Time,TemperatureF,DewpointF,PressureIn,WindDirection,WindDirectionDegrees,WindSpeedMPH,WindSpeedGustMPH,Humidity,HourlyPrecipIn,Conditions,Clouds,dailyrainin,SoftwareType,DateUTC
2013-04-07 00:10:00,62.8,37.0,30.09,ESE,122,3.0,8.0,39,0.00,,,0.00,weatherlink.com 1.10,2013-04-07 04:10:00,
2013-04-07 00:27:00,62.1,37.0,30.08,SE,139,2.0,9.0,40,0.00,,,0.00,weatherlink.com 1.10,2013-04-07 04:27:00,
2013-04-07 00:46:00,61.6,37.0,30.07,SE,139,2.0,7.0,41,0.00,,,0.00,weatherlink.com 1.10,2013-04-07 04:46:00,
2013-04-07 01:03:00,61.5,37.0,30.07,SE,146,1.0,10.0,41,0.00,,,0.00,weatherlink.com 1.10,2013-04-07 05:03:00,
2013-04-07 01:21:00,61.4,38.0,30.07,SSE,147,1.0,6.0,42,0.00,,,0.00,weatherlink.com 1.10,2013-04-07 05:21:00,
2013-04-07 01:38:00,62.1,38.0,30.06,SE,141,4.0,8.0,41,0.00,,,0.00,weatherlink.com 1.10,2013-04-07 05:38:00,
2013-04-07 01:56:00,62.2,38.0,30.06,SE,134,3.0,15.0,41,0.00,,,0.00,weatherlink.com 1.10,2013-04-07 05:56:00,
2013-04-07 04:04:00,63.4,39.0,30.05,SW,221,9.0,14.0,41,0.00,,,0.00,weatherlink.com 1.10,2013-04-07 08:04:00,
2013-04-07 04:53:00,62.3,41.0,30.05,SSW,205,6.0,11.0,45,0.00,,,0.00,weatherlink.com 1.10,2013-04-07 08:53:00,
2013-04-07 05:11:00,61.6,41.0,30.06,SSE,163,5.0,17.0,47,0.00,,,0.00,weatherlink.com 1.10,2013-04-07 09:11:00,
2013-04-07 05:29:00,61.4,41.0,30.07,SSE,165,6.0,10.0,48,0.00,,,0.00,weatherlink.com 1.10,2013-04-07 09:29:00,
2013-04-07 05:47:00,61.1,41.0,30.07,SW,236,6.0,14.0,48,0.00,,,0.00,weatherlink.com 1.10,2013-04-07 09:47:00,
2013-04-07 06:04:00,61.1,42.0,30.07,East,83,4.0,12.0,49,0.00,,,0.00,weatherlink.com 1.10,2013-04-07 10:04:00,
2013-04-07 06:23:00,60.9,42.0,30.08,SSW,207,5.0,11.0,50,0.00,,,0.00,weatherlink.com 1.10,2013-04-07 10:23:00,
2013-04-07 06:58:00,60.1,42.0,30.09,SSW,210,3.0,8.0,52,0.00,,,0.00,weatherlink.com 1.10,2013-04-07 10:58:00,
2013-04-07 07:15:00,59.7,42.0,30.10,SSW,193,1.0,8.0,53,0.00,,,0.00,weatherlink.com 1.10,2013-04-07 11:15:00,
2013-04-07 07:51:00,58.5,43.0,30.11,SW,221,1.0,4.0,56,0.00,,,0.00,weatherlink.com 1.10,2013-04-07 11:51:00,
2013-04-07 08:09:00,58.3,43.0,30.12,SSE,148,0.0,4.0,57,0.00,,,0.00,weatherlink.com 1.10,2013-04-07 12:09:00,
2013-04-07 08:26:00,58.6,44.0,30.12,SW,216,1.0,3.0,58,0.00,,,0.00,weatherlink.com 1.10,2013-04-07 12:26:00,
2013-04-07 08:44:00,59.7,44.0,30.13,West,266,0.0,6.0,57,0.00,,,0.00,weatherlink.com 1.10,2013-04-07 12:44:00,
2013-04-07 09:01:00,61.5,45.0,30.13,SSW,211,3.0,9.0,55,0.00,,,0.00,weatherlink.com 1.10,2013-04-07 13:01:00,
2013-04-07 09:19:00,63.3,46.0,30.13,West,274,5.0,7.0,53,0.00,,,0.00,weatherlink.com 1.10,2013-04-07 13:19:00,
2013-04-07 09:37:00,63.8,46.0,30.14,West,278,4.0,10.0,53,0.00,,,0.00,weatherlink.com 1.10,2013-04-07 13:37:00,
2013-04-07 09:55:00,64.5,46.0,30.14,South,180,3.0,9.0,51,0.00,,,0.00,weatherlink.com 1.10,2013-04-07 13:55:00,
2013-04-07 10:12:00,63.6,46.0,30.14,SW,214,3.0,10.0,53,0.00,,,0.00,weatherlink.com 1.10,2013-04-07 14:12:00,
2013-04-07 10:30:00,64.4,46.0,30.14,SW,236,7.0,15.0,51,0.00,,,0.00,weatherlink.com 1.10,2013-04-07 14:30:00,
2013-04-07 10:47:00,65.6,46.0,30.15,WNW,283,4.0,9.0,49,0.00,,,0.00,weatherlink.com 1.10,2013-04-07 14:47:00,
2013-04-07 11:06:00,66.3,46.0,30.15,SSW,205,1.0,10.0,48,0.00,,,0.00,weatherlink.com 1.10,2013-04-07 15:06:00,
2013-04-07 11:41:00,68.0,46.0,30.16,North,359,2.0,9.0,46,0.00,,,0.00,weatherlink.com 1.10,2013-04-07 15:41:00,
2013-04-07 11:59:00,67.6,46.0,30.17,West,278,6.0,11.0,46,0.00,,,0.00,weatherlink.com 1.10,2013-04-07 15:59:00,
2013-04-07 12:16:00,68.3,45.0,30.17,WSW,252,3.0,9.0,44,0.00,,,0.00,weatherlink.com 1.10,2013-04-07 16:16:00,
2013-04-07 12:34:00,69.1,45.0,30.17,NW,326,3.0,10.0,42,0.00,,,0.00,weatherlink.com 1.10,2013-04-07 16:34:00,
2013-04-07 12:52:00,69.2,44.0,30.17,NW,309,2.0,11.0,41,0.00,,,0.00,weatherlink.com 1.10,2013-04-07 16:52:00,
2013-04-07 13:09:00,69.6,43.0,30.16,West,276,2.0,12.0,38,0.00,,,0.00,weatherlink.com 1.10,2013-04-07 17:09:00,
2013-04-07 13:27:00,70.8,45.0,30.16,WSW,248,5.0,10.0,40,0.00,,,0.00,weatherlink.com 1.10,2013-04-07 17:27:00,
2013-04-07 13:45:00,70.6,43.0,30.16,West,279,9.0,11.0,37,0.00,,,0.00,weatherlink.com 1.10,2013-04-07 17:45:00,
2013-04-07 14:03:00,71.1,44.0,30.16,WSW,256,3.0,10.0,38,0.00,,,0.00,weatherlink.com 1.10,2013-04-07 18:03:00,
2013-04-07 14:20:00,71.6,43.0,30.15,SW,229,4.0,10.0,36,0.00,,,0.00,weatherlink.com 1.10,2013-04-07 18:20:00,
2013-04-07 14:38:00,71.9,43.0,30.16,NW,307,9.0,11.0,35,0.00,,,0.00,weatherlink.com 1.10,2013-04-07 18:38:00,
2013-04-07 14:55:00,73.7,42.0,30.16,West,280,3.0,11.0,32,0.00,,,0.00,weatherlink.com 1.10,2013-04-07 18:55:00,
2013-04-07 15:14:00,73.2,43.0,30.15,West,266,5.0,11.0,34,0.00,,,0.00,weatherlink.com 1.10,2013-04-07 19:14:00,
2013-04-07 15:31:00,73.5,43.0,30.16,SSW,200,4.0,9.0,33,0.00,,,0.00,weatherlink.com 1.10,2013-04-07 19:31:00,
2013-04-07 15:49:00,71.6,41.0,30.16,NW,314,8.0,15.0,33,0.00,,,0.00,weatherlink.com 1.10,2013-04-07 19:49:00,
2013-04-07 16:06:00,72.8,42.0,30.16,SSW,212,4.0,10.0,33,0.00,,,0.00,weatherlink.com 1.10,2013-04-07 20:06:00,
2013-04-07 16:24:00,73.2,42.0,30.15,NE,43,1.0,9.0,33,0.00,,,0.00,weatherlink.com 1.10,2013-04-07 20:24:00,
2013-04-07 16:41:00,72.6,42.0,30.15,SW,215,3.0,8.0,33,0.00,,,0.00,weatherlink.com 1.10,2013-04-07 20:41:00,
2013-04-07 17:00:00,72.9,41.0,30.15,WNW,294,10.0,10.0,32,0.00,,,0.00,weatherlink.com 1.10,2013-04-07 21:00:00,
2013-04-07 17:17:00,73.1,42.0,30.15,South,181,5.0,8.0,33,0.00,,,0.00,weatherlink.com 1.10,2013-04-07 21:17:00,
2013-04-07 17:35:00,72.5,42.0,30.15,WNW,283,1.0,7.0,33,0.00,,,0.00,weatherlink.com 1.10,2013-04-07 21:35:00,
2013-04-07 17:53:00,72.4,41.0,30.15,WNW,298,4.0,10.0,32,0.00,,,0.00,weatherlink.com 1.10,2013-04-07 21:53:00,
2013-04-07 18:35:00,72.5,40.0,30.15,WNW,291,2.0,7.0,31,0.00,,,0.00,weatherlink.com 1.10,2013-04-07 22:35:00,
2013-04-07 18:45:00,71.9,41.0,30.15,WSW,255,1.0,6.0,33,0.00,,,0.00,weatherlink.com 1.10,2013-04-07 22:45:00,
2013-04-07 19:03:00,71.3,41.0,30.15,West,259,0.0,3.0,33,0.00,,,0.00,weatherlink.com 1.10,2013-04-07 23:03:00,
2013-04-07 19:20:00,70.7,40.0,30.15,NW,312,1.0,3.0,33,0.00,,,0.00,weatherlink.com 1.10,2013-04-07 23:20:00,
2013-04-07 19:37:00,70.3,40.0,30.14,NW,321,0.0,2.0,33,0.00,,,0.00,weatherlink.com 1.10,2013-04-07 23:37:00,
2013-04-07 19:56:00,69.6,40.0,30.15,NW,321,0.0,1.0,34,0.00,,,0.00,weatherlink.com 1.10,2013-04-07 23:56:00,
2013-04-07 20:14:00,68.7,39.0,30.15,NE,47,0.0,1.0,34,0.00,,,0.00,weatherlink.com 1.10,2013-04-08 00:14:00,
2013-04-07 20:31:00,67.7,39.0,30.14,NE,49,0.0,0.0,35,0.00,,,0.00,weatherlink.com 1.10,2013-04-08 00:31:00,
2013-04-07 20:49:00,66.0,40.0,30.14,NE,49,0.0,0.0,38,0.00,,,0.00,weatherlink.com 1.10,2013-04-08 00:49:00,
2013-04-07 21:24:00,64.5,41.0,30.15,NE,49,0.0,0.0,42,0.00,,,0.00,weatherlink.com 1.10,2013-04-08 01:24:00,
2013-04-07 21:59:00,63.2,42.0,30.16,NE,48,0.0,0.0,47,0.00,,,0.00,weatherlink.com 1.10,2013-04-08 01:59:00,
2013-04-07 22:17:00,62.5,40.0,30.17,SE,127,0.0,0.0,44,0.00,,,0.00,weatherlink.com 1.10,2013-04-08 02:17:00,
2013-04-07 22:34:00,62.9,40.0,30.17,ESE,105,1.0,2.0,43,0.00,,,0.00,weatherlink.com 1.10,2013-04-08 02:34:00,
2013-04-07 22:52:00,62.9,41.0,30.17,SE,129,1.0,3.0,45,0.00,,,0.00,weatherlink.com 1.10,2013-04-08 02:52:00,
2013-04-07 23:10:00,62.6,44.0,30.18,SE,135,1.0,2.0,50,0.00,,,0.00,weatherlink.com 1.10,2013-04-08 03:10:00,
2013-04-07 23:27:00,62.2,45.0,30.18,ESE,111,1.0,1.0,53,0.00,,,0.00,weatherlink.com 1.10,2013-04-08 03:27:00,
2013-04-07 23:45:00,61.8,47.0,30.17,SE,134,0.0,1.0,58,0.00,,,0.00,weatherlink.com 1.10,2013-04-08 03:45:00,